Home   Weather   Växjö   Past weeks

Flag for Sweden Past Weather in Växjö, Sweden — Yesterday and Last 2 Weeks

Now
46 °F

Low clouds.


Feels Like: 42 °F
Forecast: 49 / 51 °F
Wind: 9 mph from East

Location: Vaxjo Airport

Current Time: Oct 21, 2017 at 9:47:13 pm

Latest Report: Oct 21, 2017 at 8:50 pm


Visibility: N/A

Pressure: 30.01 "Hg

Humidity: 93%

Dew Point: 45 °F

Location of VäxjöLocation

Past Weather in Växjö — Graph

°F

Växjö Temperature Yesterday

Maximum temperature yesterday: 52 °F (at 2:20 pm)
Minimum temperature yesterday: 45 °F (at 12:20 am)
Average temperature yesterday: 49 °F

High & Low Weather Summary for the Past Weeks

 TemperatureHumidityPressure
High61 °F (Oct 15, 3:20 pm)100% (Oct 7, 2:50 am)30.15 "Hg (Oct 7, 2:50 am)
Low32 °F (Oct 19, 5:20 am)58% (Oct 13, 1:20 pm)29.42 "Hg (Oct 12, 9:20 am)
Average49 °F87%29.86 "Hg
* Reported Oct 6 8:20 pm — Oct 21 8:20 pm, Växjö. Weather by CustomWeather, © 2017

Note: Actual official high and low records may vary slightly from our data, if they occured in-between our weather recording intervals... More about our weather records

Advertising

Växjö Weather History for the Previous 24 Hours

Scroll right to see more
 ConditionsComfort  
Time TempWeatherWind HumidityBarometerVisibility
8:20 pm
Sat, Oct 21
46 °FLow clouds.9 mph93%30.01 "HgN/A
7:50 pm46 °FLow clouds.10 mph93%30.01 "HgN/A
7:20 pm46 °FLow clouds.9 mph93%30.01 "HgN/A
6:50 pm46 °FLow clouds.10 mph93%30.01 "HgN/A
6:20 pm46 °FLow clouds.8 mph93%30.01 "HgN/A
5:50 pm48 °FLow clouds.12 mph87%30.01 "HgN/A
5:20 pm48 °FOvercast.10 mph82%30.01 "HgN/A
4:50 pm48 °FOvercast.9 mph82%30.01 "HgN/A
4:20 pm48 °FMostly cloudy.9 mph82%30.01 "HgN/A
3:50 pm48 °FMostly cloudy.8 mph82%30.01 "HgN/A
3:20 pm48 °FOvercast.9 mph82%30.01 "HgN/A
2:50 pm48 °FOvercast.9 mph87%30.01 "HgN/A
2:20 pm50 °FOvercast.10 mph82%30.01 "HgN/A
1:50 pm50 °FOvercast.9 mph82%30.01 "HgN/A
1:20 pm50 °FOvercast.10 mph82%30.01 "HgN/A
12:50 pm50 °FOvercast.10 mph82%30.01 "HgN/A
12:20 pm50 °FOvercast.9 mph88%30.01 "HgN/A
11:50 am50 °FOvercast.10 mph88%30.01 "HgN/A
11:20 am50 °FLow clouds.8 mph88%30.01 "HgN/A
10:50 am50 °FLow clouds.9 mph88%29.98 "HgN/A
10:20 am48 °FLow clouds.10 mph94%29.98 "HgN/A
9:50 am48 °FLow clouds.9 mph94%29.98 "HgN/A
9:20 am48 °FFog.7 mph94%29.98 "Hg6 mi
8:50 am48 °FFog.8 mph94%29.98 "Hg5 mi
8:20 am48 °FLow clouds.9 mph94%29.98 "HgN/A
7:50 am48 °FLow clouds.10 mph87%29.98 "HgN/A
7:20 am48 °FLow clouds.10 mph87%29.98 "HgN/A
6:50 am48 °FLow clouds.10 mph87%29.98 "HgN/A
6:20 am48 °FLow clouds.10 mph87%29.95 "HgN/A
5:50 am48 °FLow clouds.12 mph87%29.95 "HgN/A
5:20 am48 °FLow clouds.12 mph87%29.95 "HgN/A
4:50 am48 °FLow clouds.9 mph87%29.98 "HgN/A
4:20 am48 °FLow clouds.8 mph87%29.98 "HgN/A
3:50 am48 °FLow clouds.9 mph87%29.98 "HgN/A
3:20 am48 °FLow clouds.8 mph87%29.98 "HgN/A
2:50 am48 °FLow clouds.8 mph94%29.98 "HgN/A
1:50 am48 °FLow clouds.9 mph94%30.01 "HgN/A
1:20 am48 °FLow clouds.7 mph94%30.01 "HgN/A
12:50 am48 °FLow clouds.7 mph94%30.01 "HgN/A
12:20 am48 °FLow clouds.8 mph94%30.01 "HgN/A
11:50 pm
Fri, Oct 20
48 °FLow clouds.7 mph94%30.01 "HgN/A
11:20 pm48 °FLow clouds.6 mph94%30.01 "HgN/A
10:50 pm48 °FLow clouds.7 mph94%30.01 "HgN/A
10:20 pm48 °FLow clouds.8 mph94%30.01 "HgN/A
9:50 pm48 °FLow clouds.7 mph94%30.01 "HgN/A
9:20 pm48 °FLow clouds.7 mph94%30.01 "HgN/A
Weather by CustomWeather, © 2017

See weather overview